CW4610 Weather Reports


Display with metric or nautical units.
time (UTC)temp
F
wind
direction
speed
MPH
gust
MPH
rain 1hr
in
rain 24hr
in
rain mn
in
humidity
%
barometer
mb
20260504210518 86 180 10.0 17.0 0.00 0.00 0.00 33 1007.7
20260504205518 87 180 13.0 22.0 0.00 0.00 0.00 33 1007.8
20260504204518 87 180 8.0 15.0 0.00 0.00 0.00 33 1007.8
20260504203541 87 180 8.0 14.0 0.00 0.00 0.00 33 1007.8
20260504202518 87 203 6.0 10.0 0.00 0.00 0.00 34 1008.2
20260504201519 87 180 5.0 11.0 0.00 0.00 0.00 33 1008.2
20260504200517 86 180 7.0 12.0 0.00 0.00 0.00 33 1008.3
20260504195520 86 225 4.0 7.0 0.00 0.00 0.00 33 1008.3
20260504194520 86 225 4.0 6.0 0.00 0.00 0.00 32 1008.4
20260504193522 85 180 5.0 7.0 0.00 0.00 0.00 35 1008.4
20260504192519 84 225 4.0 10.0 0.00 0.00 0.00 35 1008.5
20260504191520 82 225 3.0 5.0 0.00 0.00 0.00 34 1008.7
20260504190520 81 248 2.0 4.0 0.00 0.00 0.00 38 1008.7
20260504185523 81 225 3.0 6.0 0.00 0.00 0.00 38 1008.8
20260504184558 80 225 4.0 7.0 0.00 0.00 0.00 37 1008.8
20260504183644 80 225 4.0 6.0 0.00 0.00 0.00 39 1008.8
20260504182521 79 225 3.0 4.0 0.00 0.00 0.00 42 1008.9
20260504181540 79 225 3.0 5.0 0.00 0.00 0.00 42 1009.0
20260504180542 78 225 4.0 5.0 0.00 0.00 0.00 41 1009.0
20260504175520 78 315 1.0 3.0 0.00 0.00 0.00 42 1009.1
20260504174520 77 270 1.0 3.0 0.00 0.00 0.00 46 1009.2
20260504173520 76 225 1.0 4.0 0.00 0.00 0.00 47 1009.2
20260504172520 75 225 2.0 4.0 0.00 0.00 0.00 48 1009.3
20260504171520 73 248 1.0 3.0 0.00 0.00 0.00 51 1009.3
20260504170539 72 158 1.0 3.0 0.00 0.00 0.00 53 1009.3
20260504150540 56 315 0.0 1.0 0.00 0.00 0.00 77 1010.0
20260504140520 50 338 1.0 3.0 0.00 0.00 0.00 85 1009.8
20260504130519 50 0 2.0 2.0 0.00 0.00 0.00 84 1009.3
20260504110616 52 0 2.0 3.0 0.00 0.00 0.00 79 1009.3
20260504100519 54 23 1.0 2.0 0.00 0.00 0.00 73 1009.3
20260504081519 58 0 1.0 2.0 0.00 0.00 0.00 64 1009.1
20260504080519 58 23 1.0 2.0 0.00 0.00 0.00 64 1009.1
20260504050526 68 0 1.0 2.0 0.00 0.00 0.00 54 1008.7
20260504045536 69 0 4.0 5.0 0.00 0.00 0.00 52 1008.6
20260504044603 70 0 3.0 5.0 0.00 0.00 0.00 51 1008.5
20260504043613 71 23 2.0 3.0 0.00 0.00 0.00 46 1008.5
20260504042519 73 225 2.0 3.0 0.00 0.00 0.00 44 1008.3
20260504041519 74 225 1.0 3.0 0.00 0.00 0.00 40 1008.3
20260504040519 75 0 0.0 1.0 0.00 0.00 0.00 36 1008.3
20260504035520 76 113 0.0 2.0 0.00 0.00 0.00 36 1008.3
20260504034540 78 203 2.0 4.0 0.00 0.00 0.00 36 1008.3
20260504033540 79 68 1.0 4.0 0.00 0.00 0.00 31 1008.3
20260504032519 80 68 4.0 7.0 0.00 0.00 0.00 29 1008.3
20260504031600 80 68 4.0 7.0 0.00 0.00 0.00 28 1008.3
20260504030519 81 68 4.0 7.0 0.00 0.00 0.00 28 1008.3
20260504025520 81 45 3.0 7.0 0.00 0.00 0.00 28 1008.4
20260504024541 81 23 4.0 9.0 0.00 0.00 0.00 28 1008.4
20260504023520 82 23 5.0 7.0 0.00 0.00 0.00 28 1008.4
20260504022519 82 23 4.0 7.0 0.00 0.00 0.00 28 1008.4
20260504021525 82 23 5.0 9.0 0.00 0.00 0.00 27 1008.5
20260504020520 82 23 5.0 8.0 0.00 0.00 0.00 27 1008.5
20260504015531 83 23 4.0 7.0 0.00 0.00 0.00 27 1008.6
20260504014539 83 0 6.0 10.0 0.00 0.00 0.00 25 1008.6
20260504013539 83 45 4.0 9.0 0.00 0.00 0.00 22 1008.6
20260504012548 83 23 7.0 10.0 0.00 0.00 0.00 23 1008.8
20260504011519 84 23 6.0 12.0 0.00 0.00 0.00 22 1008.8
20260504010539 84 23 7.0 12.0 0.00 0.00 0.00 22 1008.8
20260504005520 84 23 7.0 13.0 0.00 0.00 0.00 22 1008.8
20260504004519 84 23 9.0 17.0 0.00 0.00 0.00 22 1009.0
20260504003520 84 23 8.0 13.0 0.00 0.00 0.00 22 1009.0
20260504002519 84 0 8.0 13.0 0.00 0.00 0.00 21 1009.2
20260504001519 85 0 9.0 14.0 0.00 0.00 0.00 21 1009.3
20260504000518 85 23 8.0 18.0 0.00 0.00 0.00 22 1009.3
20260503235600 85 23 8.0 16.0 0.00 0.00 0.00 21 1009.4
20260503234519 85 23 9.0 18.0 0.00 0.00 0.00 20 1009.6
20260503233518 85 23 9.0 14.0 0.00 0.00 0.00 20 1009.6
20260503232519 86 338 8.0 13.0 0.00 0.00 0.00 19 1009.8
20260503231519 86 23 8.0 14.0 0.00 0.00 0.00 19 1009.9
20260503230539 86 23 10.0 16.0 0.00 0.00 0.00 20 1009.9
20260503225519 86 23 7.0 13.0 0.00 0.00 0.00 21 1010.0
20260503224525 86 23 8.0 13.0 0.00 0.00 0.00 21 1010.2
20260503223519 86 23 9.0 13.0 0.00 0.00 0.00 22 1010.3
20260503222519 86 23 8.0 15.0 0.00 0.00 0.00 21 1010.4
20260503221541 86 45 7.0 11.0 0.00 0.00 0.00 22 1010.6
20260503220609 86 0 7.0 12.0 0.00 0.00 0.00 22 1010.6
20260503215518 86 0 6.0 13.0 0.00 0.00 0.00 23 1010.8
20260503214519 86 0 8.0 12.0 0.00 0.00 0.00 25 1010.9
20260503213519 86 0 6.0 11.0 0.00 0.00 0.00 25 1010.9
20260503212523 86 0 8.0 13.0 0.00 0.00 0.00 26 1010.9
20260503211518 86 0 6.0 10.0 0.00 0.00 0.00 27 1011.2